Regional Weather Roundup
Issued by NWS

Home | Current Version | Previous Version | Graphics & Text | Print | Product List | Glossary Off
Versions: 1 2 3 4 5 6 7 8 9 10 11 12 13 14 15 16 17 18 19 20 21 22 23 24 25 26 27 28 29 30 31 32 33 34 35 36 37 38 39 40 41 42 43 44 45 46 47 48 49 50

719
ASUS43 KDMX 100001
RWRIA

WEATHER ROUNDUP FOR IOWA
NATIONAL WEATHER SERVICE DES MOINES IA
600 PM CST FRI DEC 09 2016

NOTE: "FAIR" INDICATES FEW OR NO CLOUDS BELOW 12,000 FEET WITH NO
SIGNIFICANT WEATHER AND/OR OBSTRUCTIONS TO VISIBILITY.

* - THESE STATIONS ARE NOT NWS STATIONS...THUS NOT UNDER NWS
QUALITY CONTROL.  THEY ALSO DO NOT REPORT WEATHER SUCH
AS PRECIPITATION OR FOG.

IAZ001>003-012>014-020>022-031>034-043>046-100100-
   NORTHWEST IOWA

CITY           SKY/WX    TMP DP  RH WIND       PRES   REMARKS
CARROLL *      CLOUDY    19  10  68 W3        30.51R
CHEROKEE *     CLOUDY    17  11  77 CALM      30.51R
DENISON *      CLOUDY    19  10  68 CALM      30.49S
LE MARS *      CLOUDY    18   7  62 CALM      30.52R
ORANGE CITY *  CLOUDY    16  10  79 CALM      30.48F
SHELDON *      FLURRIES  16   9  73 CALM      30.47F
SIOUX CITY     CLOUDY    19   8  62 SE5       30.52R WCI  12
6HR MIN TEMP:  14; 6HR MAX TEMP:  20;

SPENCER        CLOUDY    17   7  64 W10       30.49R WCI   5
6HR MIN TEMP:  15; 6HR MAX TEMP:  19;

STORM LAKE *   CLOUDY    16   9  73 W3        30.48S
$$

IAZ055>058-069>071-079>083-090>094-100100-
   SOUTHWEST IOWA

CITY           SKY/WX    TMP DP  RH WIND       PRES   REMARKS
ATLANTIC *     CLOUDY    21  10  63 CALM      30.52S
AUDUBON *      CLOUDY    19  10  68 CALM      30.51S
CLARINDA *     CLOUDY    23  12  63 E3        30.55S
COUNCIL BLFS * CLOUDY    21  12  68 SE8       30.50S WCI  12
CRESTON *      CLOUDY    21  10  63 CALM      30.53R
HARLAN  *      CLOUDY    19  12  73 CALM      30.54S
LAMONI         CLOUDY    22  11  62 CALM      30.53R
6HR MIN TEMP:  20; 6HR MAX TEMP:  24;

RED OAK *      CLOUDY    23  12  63 E6        30.53S WCI  16
SHENANDOAH *   CLOUDY    23  12  63 E6        30.54R WCI  16
$$

IAZ047>049-059>061-072>074-084-100100-
   CENTRAL IOWA

CITY           SKY/WX    TMP DP  RH WIND       PRES   REMARKS
AMES           CLEAR     18  12  77 CALM      30.53S
6HR MIN TEMP:  18; 6HR MAX TEMP:  24;

ANKENY *       CLOUDY    21   9  58 W3        30.55R
BOONE *        CLOUDY    19   9  63 CALM      30.50S
CHARITON *     CLOUDY    21  10  63 CALM      30.53S
DES MOINES     CLOUDY    23  10  57 SW3       30.54R
6HR MIN TEMP:  20; 6HR MAX TEMP:  24;

GRINNELL*      CLOUDY    19  12  74 CALM      30.54R
KNOXVILLE *    CLOUDY    21   9  58 W5        30.53S WCI  15
MARSHALLTOWN   CLOUDY    18  12  77 CALM      30.52S
6HR MIN TEMP:  17; 6HR MAX TEMP:  22;

NEWTON *       CLOUDY    21  10  63 CALM      30.53S
PELLA *        CLOUDY    22  11  63 CALM      30.56S
PERRY *          N/A     22  12  65 NW3       30.53R
$$

IAZ004>006-015-016-023>025-035-036-100100-
   NORTH CENTRAL IOWA

CITY           SKY/WX    TMP DP  RH WIND       PRES   REMARKS
ALGONA *       CLOUDY    19  10  68 W7        30.49S WCI  10
CLARION *      CLOUDY    18  12  79 CALM      30.50S
ESTHERVILLE    CLOUDY    16   9  74 W7        30.49R WCI   6
6HR MIN TEMP:  14; 6HR MAX TEMP:  17;

FORT DODGE *   CLOUDY    19   9  63 CALM      30.51S
MASON CITY     CLOUDY    18  10  71 W6        30.50F WCI  10
6HR MIN TEMP:  18; 6HR MAX TEMP:  21;

WEBSTER CITY * MOCLDY    18  12  79 W5        30.49S WCI  11
IOWA FALLS *   MOCLDY    19  14  79 W3        30.51F
$$

IAZ007>011-017>019-026>030-037>042-050>054-066-100100-
   NORTHEAST IOWA

CITY           SKY/WX    TMP DP  RH WIND       PRES   REMARKS
CEDAR RAPIDS   CLEAR     16  13  88 CALM      30.53S
6HR MIN TEMP:  15; 6HR MAX TEMP:  20;

CHARLES CITY * CLOUDY    16  12  86 S3        30.50F
CLINTON *      FLURRIES  20  15  81 NW8       30.55S WCI  10
DECORAH *      CLOUDY    14  10  85 W6        30.48S WCI   5
DUBUQUE        CLEAR     14  10  84 W9        30.50F WCI   2
6HR MIN TEMP:  14; 6HR MAX TEMP:  19;

MONTICELLO *   MOCLDY    16  12  86 NW3       30.53S
OELWEIN *      CLOUDY    16  10  79 CALM      30.52S
WATERLOO       CLOUDY    18  11  74 CALM      30.52F
6HR MIN TEMP:  17; 6HR MAX TEMP:  21;

$$

IAZ064-065-067-068-078-100100-
   EAST CENTRAL IOWA

CITY           SKY/WX    TMP DP  RH WIND       PRES   REMARKS
DAVENPORT      CLOUDY    20  13  74 W9        30.55S WCI   9
6HR MIN TEMP:  20; 6HR MAX TEMP:  24;

IOWA CITY      CLEAR     19  12  74 W5        30.57S WCI  12
6HR MIN TEMP:  19; 6HR MAX TEMP:  23;

MUSCATINE *    MOCLDY    19  12  73 W6        30.57F WCI  11
QUAD CITIES    CLEAR     20  11  68 NW6       30.55F WCI  12
6HR MIN TEMP:  19; 6HR MAX TEMP:  25; 6HR PCP: TRACE;

$$

IAZ062-063-075>077-085>089-095>099-100100-
   SOUTHEAST IOWA

CITY           SKY/WX    TMP DP  RH WIND       PRES   REMARKS
BURLINGTON     PTCLDY    20  14  77 W3        30.55F
6HR MIN TEMP:  20; 6HR MAX TEMP:  23;

FAIRFIELD *    CLOUDY    19  10  68 W5        30.56R WCI  13
FORT MADISON * CLOUDY    19  12  73 W3        30.57S
KEOKUK *       CLOUDY    23  14  68 CALM      30.57R
OSKALOOSA *    CLOUDY    20  12  71 CALM      30.55S
CENTERVILLE *  CLOUDY    23  10  58 CALM      30.55S
OTTUMWA        CLOUDY    22   9  57 CALM      30.54F
6HR MIN TEMP:  19; 6HR MAX TEMP:  22;

WASHINGTON *   CLOUDY    19  12  73 CALM      30.56S
$$

ABBREVIATIONS USED IN REMARKS
   TC - TEMPERATURES IN CELSIUS
  WCI - WIND CHILL INDEX
   HX - HEAT INDEX
  VSB - VISIBILITY
$$





USA.gov is the U.S. government's official web portal to all federal, state and local government web resources and services.